Total_Precipitation_Accumulation
1.42 1.44 1.35 1.56 1.67 1.71 1.78 1.81 1.76 1.66 1.62 1.44 1.45 1.47 1.49 1.36 1.49 1.64 2.11 2.56 3.10 3.89 4.06 3.70 3.41 3.29 3.00 2.83 2.99 3.00 3.08 3.15 3.19 3.16 3.16 3.52 3.63 3.21 3.14 3.16 3.22 3.67 4.13
1.25 1.47 1.38 1.39 1.52 1.72 1.85 1.85 1.80 1.86 1.82 1.61 1.58 1.63 1.61 1.56 1.59 1.66 1.87 1.94 2.14 2.75 3.43 3.81 3.95 3.78 3.40 3.16 3.07 3.10 3.26 3.23 3.12 3.02 3.02 3.23 3.41 3.08 3.05 3.22 3.25 3.56 3.95
1.19 1.45 1.39 1.29 1.31 1.47 1.67 1.92 1.99 2.00 1.77 1.68 1.71 1.70 1.60 1.59 1.59 1.78 1.86 1.93 1.86 1.99 2.48 2.98 3.52 3.71 3.74 3.60 3.30 3.15 3.33 3.33 3.19 3.03 2.96 2.97 3.18 3.15 3.16 3.27 3.23 3.42 3.62
0.99 1.26 1.35 1.27 1.25 1.44 1.70 1.99 2.20 2.23 2.02 1.97 2.02 1.93 1.71 1.64 1.59 1.73 1.82 1.92 2.04 1.83 1.86 2.05 2.46 3.01 3.47 3.56 3.55 3.43 3.46 3.37 3.13 2.98 2.78 2.69 2.89 3.04 3.17 3.20 3.13 3.28 3.40
0.93 1.20 1.43 1.46 1.44 1.62 1.75 1.77 2.05 2.20 2.30 2.20 2.02 1.89 1.84 1.82 1.77 1.72 1.87 1.88 1.96 1.91 1.77 1.54 1.62 2.05 2.67 3.12 3.37 3.45 3.65 3.51 3.16 2.97 2.63 2.48 2.61 2.84 3.19 2.95 2.90 2.99 3.24
1.13 1.37 1.62 1.65 1.73 1.82 1.92 2.14 2.43 2.44 2.36 2.37 2.11 1.85 1.74 1.78 1.84 1.95 1.93 1.93 2.00 1.85 1.68 1.53 1.48 1.46 1.97 2.50 2.90 3.23 3.42 3.49 3.28 3.18 2.82 2.46 2.43 2.63 3.01 2.88 2.81 2.91 3.16
1.31 1.54 1.74 1.98 2.11 2.01 2.04 2.31 2.62 2.72 2.52 2.35 2.43 2.28 2.09 1.91 1.90 1.87 1.88 1.95 1.99 1.95 1.84 1.77 1.70 1.57 1.68 1.93 2.21 2.71 3.07 3.27 3.31 3.34 3.17 2.79 2.56 2.55 2.67 2.59 2.56 2.86 3.21
1.41 1.44 1.71 1.90 2.00 2.13 2.16 2.27 2.58 2.92 2.70 2.41 2.65 3.09 2.86 2.62 2.11 1.75 1.89 1.94 2.03 2.04 1.97 1.82 1.82 1.72 1.70 1.89 1.65 1.77 2.30 2.81 3.25 3.40 3.25 3.01 2.82 2.56 2.59 2.51 2.42 2.56 2.84
1.76 1.71 1.75 1.87 1.96 2.17 2.34 2.36 2.43 2.79 2.85 2.59 2.56 3.18 3.20 3.03 2.77 2.22 1.87 1.92 2.09 2.18 2.18 2.08 1.93 1.87 1.77 1.90 1.72 1.41 1.60 1.95 2.59 3.11 3.35 3.22 2.99 2.69 2.59 2.54 2.49 2.57 2.62
2.08 2.08 2.08 2.16 2.10 2.10 2.23 2.21 2.20 2.45 2.80 2.85 2.65 2.48 2.45 2.59 2.98 2.74 2.17 1.99 2.02 2.06 2.21 2.07 2.05 2.08 2.01 1.95 1.84 1.49 1.25 1.39 1.98 2.77 3.31 3.25 3.07 2.89 2.72 2.65 2.52 2.49 2.51
2.71 2.67 2.58 2.40 2.19 2.13 2.21 2.25 2.27 2.38 2.51 2.68 2.64 2.45 2.40 2.35 2.25 2.50 2.51 2.27 2.05 1.95 2.07 2.11 2.10 2.11 2.13 2.07 1.97 1.63 1.25 1.09 1.37 2.12 2.85 3.09 3.08 2.98 2.88 2.80 2.62 2.45 2.30
2.71 2.66 2.47 2.17 2.01 1.96 2.05 2.22 2.25 2.33 2.33 2.41 2.36 2.20 2.21 2.21 2.19 2.37 2.33 2.32 2.28 1.94 1.80 1.87 1.93 1.98 1.91 1.91 1.77 1.85 1.48 1.15 1.09 1.47 2.05 2.54 2.86 3.05 3.01 3.08 2.90 2.64 2.41
2.06 2.09 2.07 2.04 1.94 1.83 1.90 2.13 2.23 2.29 2.29 2.26 2.19 2.08 2.09 1.97 2.04 2.35 2.48 2.36 2.22 1.90 1.71 1.64 1.70 1.73 1.62 1.72 1.81 1.97 1.68 1.40 1.21 1.26 1.55 1.87 2.15 2.50 2.93 3.23 3.34 3.20 3.06
1.81 1.85 1.90 1.94 1.89 1.82 1.83 1.94 2.07 2.18 2.19 2.12 2.06 2.17 2.16 1.95 2.02 2.10 2.26 2.45 2.29 2.02 1.81 1.58 1.52 1.44 1.48 1.56 1.79 2.02 1.50 1.43 1.28 1.19 1.20 1.38 1.65 1.89 2.23 2.73 3.12 3.26 3.30
1.42 1.53 1.65 1.75 1.71 1.70 1.71 1.85 1.98 2.00 2.07 2.15 2.16 2.17 2.18 2.09 2.10 2.12 2.30 2.46 2.45 2.19 1.95 1.72 1.56 1.39 1.45 1.53 1.80 1.68 1.40 1.41 1.32 1.23 1.20 1.19 1.33 1.57 1.78 1.92 2.13 2.29 2.47
1.31 1.33 1.29 1.33 1.32 1.38 1.41 1.51 1.67 1.75 1.77 1.86 1.90 1.95 1.98 1.95 2.06 2.08 2.18 2.35 2.36 2.27 2.09 1.81 1.61 1.54 1.61 1.54 1.69 1.54 1.50 1.65 1.45 1.28 1.20 1.17 1.20 1.31 1.39 1.47 1.56 1.61 1.65
1.02 1.05 0.97 0.99 1.08 1.10 1.05 1.16 1.27 1.35 1.45 1.55 1.57 1.61 1.67 1.66 1.83 1.89 2.00 2.14 2.23 2.21 1.98 1.74 1.61 1.63 1.69 1.71 1.66 1.53 1.49 1.50 1.44 1.34 1.19 1.12 1.15 1.20 1.25 1.36 1.43 1.43 1.44
0.77 0.78 0.75 0.74 0.83 0.94 0.96 1.04 1.14 1.13 1.22 1.35 1.44 1.46 1.43 1.44 1.57 1.66 1.76 1.86 2.03 2.11 2.02 1.85 1.71 1.60 1.51 1.58 1.72 1.73 1.69 1.58 1.57 1.62 1.49 1.35 1.30 1.23 1.19 1.31 1.42 1.40 1.38
0.73 0.72 0.67 0.70 0.74 0.80 0.94 0.99 1.01 1.01 1.01 1.04 1.12 1.14 1.16 1.27 1.43 1.48 1.52 1.65 1.83 1.92 2.03 1.93 1.82 1.71 1.54 1.50 1.69 1.65 1.69 1.88 1.76 1.82 1.93 1.76 1.54 1.36 1.23 1.28 1.41 1.40 1.36
0.76 0.75 0.68 0.67 0.76 0.84 0.91 0.99 0.98 0.93 0.91 0.93 0.99 0.98 0.94 1.00 1.14 1.29 1.38 1.57 1.77 1.96 2.07 2.03 1.98 1.88 1.76 1.63 1.69 1.82 1.86 1.93 1.92 1.74 1.78 1.80 1.79 1.65 1.44 1.32 1.39 1.46 1.51
0.74 0.73 0.71 0.73 0.77 0.77 0.80 0.95 0.94 0.90 0.92 0.88 0.90 0.95 0.93 0.94 0.97 1.05 1.06 1.26 1.49 1.77 1.94 2.04 2.03 2.01 1.92 1.82 1.70 1.86 1.92 2.03 2.12 2.08 1.98 1.80 1.79 1.64 1.51 1.44 1.42 1.48 1.60
0.76 0.76 0.74 0.76 0.73 0.65 0.87 0.95 0.90 0.91 0.97 1.01 0.97 0.95 0.92 0.89 0.99 0.99 0.97 1.02 1.20 1.41 1.60 1.72 1.78 1.81 1.85 1.92 2.01 2.01 1.96 2.00 2.07 2.07 1.95 1.99 1.97 1.88 1.64 1.44 1.48 1.54 1.62
0.69 0.69 0.71 0.71 0.67 0.65 0.70 0.70 0.77 0.84 0.97 1.02 0.96 1.03 1.05 0.95 0.99 1.02 1.08 1.03 0.99 1.06 1.26 1.47 1.55 1.58 1.67 1.74 1.98 2.01 2.00 2.01 1.89 1.92 1.81 1.89 1.85 1.78 1.68 1.63 1.66 1.57 1.62
0.65 0.66 0.75 0.74 0.64 0.57 0.61 0.58 0.65 0.74 0.85 0.89 0.89 0.96 1.18 1.20 1.10 1.11 1.18 1.23 1.10 0.96 1.00 1.09 1.27 1.43 1.51 1.69 2.00 2.21 2.17 1.94 1.83 1.84 1.75 1.79 1.73 1.65 1.60 1.56 1.65 1.59 1.58
0.56 0.57 0.62 0.68 0.63 0.58 0.61 0.60 0.63 0.68 0.76 0.77 0.80 0.93 1.06 1.16 1.14 1.16 1.11 1.17 1.19 1.07 1.04 1.11 1.11 1.22 1.40 1.59 1.87 2.13 2.22 2.14 1.94 1.84 1.69 1.63 1.65 1.67 1.70 1.62 1.58 1.65 1.63
0.55 0.57 0.57 0.55 0.53 0.53 0.59 0.60 0.65 0.64 0.67 0.64 0.69 0.87 1.09 1.05 1.06 1.12 1.11 1.19 1.29 1.13 1.05 1.16 1.13 1.16 1.21 1.46 1.86 2.04 2.16 2.17 2.03 1.97 1.78 1.69 1.67 1.73 1.97 1.89 1.67 1.60 1.60